2022/12/23 00:00:00,13.6,-3.6
2022/12/23 00:10:00,14.0,-3.9
2022/12/23 00:20:00,14.7,-3.8
2022/12/23 00:30:00,15.2,-4.3
2022/12/23 00:40:00,15.6,-4.5
2022/12/23 00:50:00,16.8,-4.2
2022/12/23 01:00:00,18.0,-4.5
2022/12/23 01:10:00,19.1,-4.5
2022/12/23 01:20:00,20.0,-4.5
2022/12/23 01:30:00,21.4,-4.3
2022/12/23 01:40:00,22.4,-4.4
2022/12/23 01:50:00,24.0,-4.3
2022/12/23 02:00:00,24.8,-4.3
2022/12/23 02:10:00,24.9,-4.3
2022/12/23 02:20:00,24.7,-4.3
2022/12/23 02:30:00,25.0,-4.3
2022/12/23 02:40:00,25.4,-4.4
2022/12/23 02:50:00,25.9,-4.4
2022/12/23 03:00:00,26.4,-4.6
2022/12/23 03:10:00,27.0,-4.6
2022/12/23 03:20:00,27.7,-4.6
2022/12/23 03:30:00,28.5,-4.5
2022/12/23 03:40:00,29.7,-4.6
2022/12/23 03:50:00,30.3,-4.4
2022/12/23 04:00:00,30.9,-4.6
2022/12/23 04:10:00,31.6,-4.6
2022/12/23 04:20:00,33.0,-4.5
2022/12/23 04:30:00,33.3,-4.3
2022/12/23 04:40:00,33.7,-4.5
2022/12/23 04:50:00,34.4,-4.5
2022/12/23 05:00:00,34.8,-4.6
2022/12/23 05:10:00,34.7,-4.5
2022/12/23 05:20:00,35.0,-4.4
2022/12/23 05:30:00,34.9,-4.3
2022/12/23 05:40:00,34.8,-4.6
2022/12/23 05:50:00,34.7,-4.6
2022/12/23 06:00:00,34.8,-4.6
2022/12/23 06:10:00,34.7,-4.5
2022/12/23 06:20:00,34.6,-4.5
2022/12/23 06:30:00,34.5,-4.6
2022/12/23 06:40:00,34.4,-4.5
2022/12/23 06:50:00,34.8,-4.5
2022/12/23 07:00:00,35.8,-4.6
2022/12/23 07:10:00,36.3,-4.6
2022/12/23 07:20:00,36.4,-4.5
2022/12/23 07:30:00,36.6,-4.4
2022/12/23 07:40:00,36.5,-4.1
2022/12/23 07:50:00,36.6,-4.4
2022/12/23 08:00:00,36.6,-4.2
2022/12/23 08:10:00,37.4,-4.2
2022/12/23 08:20:00,37.4,-4.0
2022/12/23 08:30:00,37.1,-3.5
2022/12/23 08:40:00,36.9,-3.9
2022/12/23 08:50:00,37.2,-2.9
2022/12/23 09:00:00,37.3,-2.9
2022/12/23 09:10:00,36.9,-2.8
2022/12/23 09:20:00,36.9,-3.4
2022/12/23 09:30:00,36.8,-3.0
2022/12/23 09:40:00,36.5,-2.3
2022/12/23 09:50:00,36.1,-2.9
2022/12/23 10:00:00,35.9,-2.9
2022/12/23 10:10:00,35.8,-3.1
2022/12/23 10:20:00,35.9,-1.9
2022/12/23 10:30:00,35.8,-2.5
2022/12/23 10:40:00,36.0,-2.6
2022/12/23 10:50:00,35.7,-3.3
2022/12/23 11:00:00,35.6,-2.4
2022/12/23 11:10:00,35.6,-2.9
2022/12/23 11:20:00,35.6,-3.7
2022/12/23 11:30:00,35.6,-3.8
2022/12/23 11:40:00,36.2,-4.0
2022/12/23 11:50:00,37.2,-4.1
2022/12/23 12:00:00,37.8,-4.0
2022/12/23 12:10:00,38.4,-3.9
2022/12/23 12:20:00,38.9,-3.2
2022/12/23 12:30:00,39.0,-3.1
2022/12/23 12:40:00,39.7,-3.2
2022/12/23 12:50:00,40.0,-2.5
2022/12/23 13:00:00,39.9,-3.3
2022/12/23 13:10:00,40.1,-2.9
2022/12/23 13:20:00,40.2,-3.2
2022/12/23 13:30:00,40.7,-3.2
2022/12/23 13:40:00,41.9,-3.5
2022/12/23 13:50:00,43.0,-2.8
2022/12/23 14:00:00,43.2,-3.2
2022/12/23 14:10:00,43.4,-3.3
2022/12/23 14:20:00,43.1,-3.2
2022/12/23 14:30:00,43.3,-3.5
2022/12/23 14:40:00,43.7,-3.5
2022/12/23 14:50:00,43.8,-3.5
2022/12/23 15:00:00,44.1,-3.8
2022/12/23 15:10:00,44.9,-3.8
2022/12/23 15:20:00,45.6,-3.8
2022/12/23 15:30:00,45.6,-3.8
2022/12/23 15:40:00,46.4,-3.6
2022/12/23 15:50:00,46.7,-3.8
2022/12/23 16:00:00,47.7,-3.7
2022/12/23 16:10:00,49.1,-3.8
2022/12/23 16:20:00,49.3,-3.7
2022/12/23 16:30:00,49.3,-3.9
2022/12/23 16:40:00,50.1,-3.9
2022/12/23 16:50:00,50.7,-3.9
2022/12/23 17:00:00,50.9,-3.8
2022/12/23 17:10:00,50.8,-4.0
2022/12/23 17:20:00,50.3,-3.7
2022/12/23 17:30:00,51.0,-3.9
2022/12/23 17:40:00,51.7,-3.7
2022/12/23 17:50:00,51.6,-3.8
2022/12/23 18:00:00,51.1,-3.7
2022/12/23 18:10:00,50.9,-3.8
2022/12/23 18:20:00,51.1,-3.7
2022/12/23 18:30:00,50.9,-3.6
2022/12/23 18:40:00,50.9,-3.6
2022/12/23 18:50:00,51.6,-3.9
2022/12/23 19:00:00,51.8,-3.8
2022/12/23 19:10:00,51.8,-3.5
2022/12/23 19:20:00,52.5,-3.6
2022/12/23 19:30:00,52.9,-3.5
2022/12/23 19:40:00,53.3,-3.5
2022/12/23 19:50:00,53.6,-3.5
2022/12/23 20:00:00,54.5,-3.5
2022/12/23 20:10:00,54.6,-3.6
2022/12/23 20:20:00,54.3,-3.4
2022/12/23 20:30:00,53.9,-3.5
2022/12/23 20:40:00,54.0,-3.4
2022/12/23 20:50:00,54.4,-3.4
2022/12/23 21:00:00,55.3,-3.3
2022/12/23 21:10:00,55.3,-2.8
2022/12/23 21:20:00,55.2,-2.9
2022/12/23 21:30:00,55.0,-2.9
2022/12/23 21:40:00,54.7,-3.1
2022/12/23 21:50:00,54.7,-2.9
2022/12/23 22:00:00,54.5,-2.8
2022/12/23 22:10:00,54.6,-2.2
2022/12/23 22:20:00,54.6,-2.9
2022/12/23 22:30:00,54.8,-2.8
2022/12/23 22:40:00,55.4,-2.8
2022/12/23 22:50:00,55.8,-2.7
2022/12/23 23:00:00,56.3,-2.8
2022/12/23 23:10:00,56.8,-2.7
2022/12/23 23:20:00,57.0,-2.8
2022/12/23 23:30:00,58.1,-2.8
2022/12/23 23:40:00,58.9,-2.8
2022/12/23 23:50:00,59.4,-2.8
